Location: Beaufort Park
(39.1418°N, 76.9433°W)
Time: 20:11:36
(UTC+00:00)

COSMO-SKYMED 1 - Pass Details

Date: 29 October 2020
Orbit: 621 x 623 km, 97.9° (Epoch: 03 December)

Event Time Altitude Azimuth Distance (km) Brightness Sun altitude
Rises 23:31:56 0° 7° (N) 2,911 5.9 -16.5°
Reaches altitude 10° 23:34:10 10° 3° (N) 1,999 5.1 -16.9°
Maximum altitude 23:38:24 54° 286° (WNW) 757 3.3 -17.7°
Drops below altitude 10° 23:42:37 10° 209° (SSW) 1,984 5.6 -18.5°
Sets 23:44:49 0° 205° (SSW) 2,885 6.4 -19.0°
